Simultaneous Nadir Overpasses (SNOs) Predictions

Prediction of SNOs between FY3D and NOAA-19 Satellite Orbit:

Table of predicted SNOs for the next 14.0 days since TLE Epoch: 2/29/2020
Index Date (FY3D) Time (FY3D) Lat,Lon (FY3D) SZA (FY3D ) Date (NOAA-19) Time (NOAA-19) Lat,Lon (NOAA-19) SZA (NOAA-19 ) Distance(km) Time Diff (sec)
1 03/10/2020 20:38:33 79.59,-163.61 85.25 03/10/2020 20:37:20 79.58,-163.50 85.26 2.30 73
2 03/10/2020 21:29:18 -79.59, 3.68 94.77 03/10/2020 21:28:26 -79.59, 3.79 94.76 2.25 52
3 03/10/2020 22:20:02 79.59, 171.04 85.21 03/10/2020 22:19:21 79.58, 170.90 85.24 3.02 41
4 03/10/2020 23:10:47 -79.59, -21.67 94.80 03/10/2020 23:10:27 -79.58, -21.81 94.78 2.91 20
5 03/11/2020 00:01:31 79.58, 145.70 85.18 03/11/2020 00:01:21 79.59, 145.60 85.21 2.36 10
6 03/11/2020 00:52:16 -79.59, -47.01 94.83 03/11/2020 00:52:27 -79.60, -47.12 94.82 2.64 11
7 03/11/2020 01:43:01 79.61, 120.07 85.20 03/11/2020 01:43:22 79.58, 120.00 85.18 3.43 21
8 03/11/2020 02:33:46 -79.61, -72.63 94.81 03/11/2020 02:34:28 -79.59, -72.71 94.84 3.11 42
9 03/11/2020 03:24:30 79.61, 94.73 85.17 03/11/2020 03:25:22 79.60, 94.69 85.15 1.02 52
10 03/11/2020 04:15:15 -79.61, -97.98 94.85 03/11/2020 04:16:28 -79.61, -98.02 94.88 0.92 73




NCC Satellite Simultaneous Nadir Overpasses (SNOs) Prediction Service
